Time,TemperatureF,DewpointF,PressureIn,WindDirection,WindDirectionDegrees,WindSpeedMPH,WindSpeedGustMPH,Humidity,HourlyPrecipIn,Conditions,Clouds,dailyrainin,SoftwareType,DateUTC
2013-05-14 00:01:00,61.0,36.0,-100.00,SW,225,17.0,22.0,39,0.00,,,-99.99,,2013-05-14 06:01:00,
2013-05-14 00:12:00,61.0,36.0,-100.00,SW,220,18.0,24.0,38,0.00,,,-99.99,,2013-05-14 06:12:00,
2013-05-14 00:22:00,61.0,36.0,-100.00,SW,225,19.0,22.0,38,0.00,,,-99.99,,2013-05-14 06:22:00,
2013-05-14 00:32:00,61.0,35.0,-100.00,SW,225,18.0,24.0,38,0.00,,,-99.99,,2013-05-14 06:32:00,
2013-05-14 00:42:00,61.0,35.0,-100.00,SW,225,21.0,24.0,37,0.00,,,-99.99,,2013-05-14 06:42:00,
2013-05-14 00:51:00,61.0,35.0,-100.00,SW,225,20.0,26.0,37,0.00,,,-99.99,,2013-05-14 06:51:00,
2013-05-14 01:02:00,61.0,35.0,-100.00,SW,225,21.0,25.0,37,0.00,,,-99.99,,2013-05-14 07:02:00,
2013-05-14 01:11:00,61.0,34.0,-100.00,SW,225,21.0,27.0,37,0.00,,,-99.99,,2013-05-14 07:11:00,
2013-05-14 01:21:00,61.0,34.0,-100.00,SW,225,19.0,26.0,37,0.00,,,-99.99,,2013-05-14 07:21:00,
2013-05-14 01:31:00,60.0,34.0,-100.00,SW,225,19.0,23.0,37,0.00,,,-99.99,,2013-05-14 07:31:00,
2013-05-14 01:41:00,61.0,35.0,-100.00,SW,225,19.0,26.0,37,0.00,,,-99.99,,2013-05-14 07:41:00,
2013-05-14 01:52:00,60.0,35.0,-100.00,SW,220,19.0,23.0,37,0.00,,,-99.99,,2013-05-14 07:52:00,
2013-05-14 02:02:00,60.0,35.0,-100.00,SW,230,19.0,22.0,38,0.00,,,-99.99,,2013-05-14 08:02:00,
2013-05-14 02:11:00,60.0,35.0,-100.00,WSW,240,18.0,23.0,38,0.00,,,-99.99,,2013-05-14 08:11:00,
2013-05-14 02:21:00,59.0,34.0,-100.00,WSW,240,17.0,22.0,38,0.00,,,-99.99,,2013-05-14 08:21:00,
2013-05-14 02:31:00,59.0,34.0,-100.00,WSW,240,16.0,21.0,39,0.00,,,-99.99,,2013-05-14 08:31:00,
2013-05-14 02:41:00,59.0,35.0,-100.00,SW,235,17.0,20.0,39,0.00,,,-99.99,,2013-05-14 08:41:00,
2013-05-14 02:51:00,58.0,35.0,-100.00,SW,235,17.0,21.0,40,0.00,,,-99.99,,2013-05-14 08:51:00,
2013-05-14 03:02:00,59.0,35.0,-100.00,SW,235,19.0,24.0,40,0.00,,,-99.99,,2013-05-14 09:02:00,
2013-05-14 03:11:00,60.0,35.0,-100.00,WSW,240,20.0,26.0,40,0.00,,,-99.99,,2013-05-14 09:11:00,
2013-05-14 03:21:00,60.0,35.0,-100.00,SW,235,17.0,24.0,39,0.00,,,-99.99,,2013-05-14 09:21:00,
2013-05-14 03:32:00,60.0,35.0,-100.00,SW,235,19.0,24.0,39,0.00,,,-99.99,,2013-05-14 09:32:00,
2013-05-14 03:44:00,59.0,35.0,-100.00,SW,235,17.0,26.0,40,0.00,,,-99.99,,2013-05-14 09:44:00,
2013-05-14 03:54:00,58.0,35.0,-100.00,SW,235,18.0,23.0,40,0.00,,,-99.99,,2013-05-14 09:54:00,
2013-05-14 04:04:00,58.0,34.0,-100.00,SW,235,17.0,22.0,41,0.00,,,-99.99,,2013-05-14 10:04:00,
2013-05-14 04:14:00,57.0,34.0,-100.00,SW,235,17.0,20.0,41,0.00,,,-99.99,,2013-05-14 10:14:00,
2013-05-14 04:25:00,57.0,34.0,-100.00,SW,235,15.0,20.0,41,0.00,,,-99.99,,2013-05-14 10:25:00,
2013-05-14 04:33:00,57.0,34.0,-100.00,WSW,245,16.0,19.0,42,0.00,,,-99.99,,2013-05-14 10:33:00,
2013-05-14 04:42:00,57.0,35.0,-100.00,SW,235,15.0,21.0,42,0.00,,,-99.99,,2013-05-14 10:42:00,
2013-05-14 04:52:00,57.0,35.0,-100.00,SW,235,16.0,21.0,42,0.00,,,-99.99,,2013-05-14 10:52:00,
2013-05-14 05:02:00,57.0,35.0,-100.00,SW,235,16.0,21.0,42,0.00,,,-99.99,,2013-05-14 11:02:00,
2013-05-14 05:11:00,57.0,35.0,-100.00,SW,230,16.0,20.0,42,0.00,,,-99.99,,2013-05-14 11:11:00,
2013-05-14 05:21:00,57.0,35.0,-100.00,SW,230,16.0,20.0,42,0.00,,,-99.99,,2013-05-14 11:21:00,
2013-05-14 05:32:00,57.0,35.0,-100.00,SW,235,16.0,19.0,42,0.00,,,-99.99,,2013-05-14 11:32:00,
2013-05-14 05:43:00,57.0,35.0,-100.00,SW,235,16.0,20.0,42,0.00,,,-99.99,,2013-05-14 11:43:00,
2013-05-14 05:52:00,57.0,35.0,-100.00,SW,230,16.0,19.0,42,0.00,,,-99.99,,2013-05-14 11:52:00,
2013-05-14 06:02:00,57.0,35.0,-100.00,SW,230,14.0,20.0,42,0.00,,,-99.99,,2013-05-14 12:02:00,
2013-05-14 06:12:00,57.0,35.0,-100.00,SW,230,15.0,18.0,42,0.00,,,-99.99,,2013-05-14 12:12:00,
2013-05-14 06:21:00,57.0,35.0,-100.00,SW,230,14.0,19.0,42,0.00,,,-99.99,,2013-05-14 12:21:00,
2013-05-14 06:32:00,58.0,35.0,-100.00,SW,235,14.0,17.0,42,0.00,,,-99.99,,2013-05-14 12:32:00,
2013-05-14 06:42:00,58.0,36.0,-100.00,SW,230,14.0,17.0,42,0.00,,,-99.99,,2013-05-14 12:42:00,
2013-05-14 06:51:00,59.0,36.0,-100.00,SW,235,14.0,18.0,42,0.00,,,-99.99,,2013-05-14 12:51:00,
2013-05-14 07:01:00,59.0,36.0,-100.00,SW,235,13.0,18.0,42,0.00,,,-99.99,,2013-05-14 13:01:00,
2013-05-14 07:11:00,59.0,36.0,-100.00,SW,230,14.0,18.0,42,0.00,,,-99.99,,2013-05-14 13:11:00,
2013-05-14 07:22:00,60.0,37.0,-100.00,SW,230,13.0,17.0,42,0.00,,,-99.99,,2013-05-14 13:22:00,
2013-05-14 07:32:00,61.0,38.0,-100.00,SW,230,12.0,17.0,41,0.00,,,-99.99,,2013-05-14 13:32:00,
2013-05-14 07:41:00,64.0,39.0,-100.00,WSW,245,12.0,15.0,40,0.00,,,-99.99,,2013-05-14 13:41:00,
2013-05-14 07:52:00,64.0,39.0,-100.00,SW,235,14.0,17.0,39,0.00,,,-99.99,,2013-05-14 13:52:00,
2013-05-14 08:01:00,65.0,39.0,-100.00,WSW,245,14.0,17.0,39,0.00,,,-99.99,,2013-05-14 14:01:00,
2013-05-14 08:11:00,65.0,39.0,-100.00,WSW,240,15.0,19.0,38,0.00,,,-99.99,,2013-05-14 14:11:00,
2013-05-14 08:22:00,65.0,39.0,-100.00,WSW,245,16.0,21.0,38,0.00,,,-99.99,,2013-05-14 14:22:00,
2013-05-14 08:31:00,65.0,39.0,-100.00,WSW,245,17.0,20.0,38,0.00,,,-99.99,,2013-05-14 14:31:00,
2013-05-14 08:41:00,65.0,39.0,-100.00,WSW,255,15.0,20.0,38,0.00,,,-99.99,,2013-05-14 14:41:00,
2013-05-14 08:52:00,66.0,40.0,-100.00,SW,235,14.0,18.0,37,0.00,,,-99.99,,2013-05-14 14:52:00,
2013-05-14 09:01:00,67.0,40.0,-100.00,SW,235,15.0,20.0,37,0.00,,,-99.99,,2013-05-14 15:01:00,
2013-05-14 09:12:00,67.0,40.0,-100.00,SW,235,16.0,21.0,36,0.00,,,-99.99,,2013-05-14 15:12:00,
2013-05-14 09:21:00,67.0,39.0,-100.00,SW,225,17.0,24.0,36,0.00,,,-99.99,,2013-05-14 15:21:00,
2013-05-14 09:33:00,68.0,40.0,-100.00,SW,230,16.0,21.0,35,0.00,,,-99.99,,2013-05-14 15:33:00,
2013-05-14 09:43:00,69.0,40.0,-100.00,SW,235,16.0,21.0,35,0.00,,,-99.99,,2013-05-14 15:43:00,
2013-05-14 09:53:00,68.0,39.0,-100.00,SW,230,16.0,29.0,34,0.00,,,-99.99,,2013-05-14 15:53:00,
2013-05-14 10:02:00,69.0,40.0,-100.00,SW,230,16.0,22.0,34,0.00,,,-99.99,,2013-05-14 16:02:00,
2013-05-14 10:12:00,69.0,40.0,-100.00,West,265,14.0,24.0,33,0.00,,,-99.99,,2013-05-14 16:12:00,
2013-05-14 10:23:00,71.0,40.0,-100.00,West,270,13.0,21.0,33,0.00,,,-99.99,,2013-05-14 16:23:00,
2013-05-14 10:33:00,71.0,40.0,-100.00,SW,235,15.0,21.0,32,0.00,,,-99.99,,2013-05-14 16:33:00,
2013-05-14 10:43:00,71.0,40.0,-100.00,West,265,17.0,24.0,32,0.00,,,-99.99,,2013-05-14 16:43:00,
2013-05-14 10:54:00,71.0,40.0,-100.00,WSW,240,17.0,22.0,32,0.00,,,-99.99,,2013-05-14 16:54:00,
2013-05-14 11:03:00,71.0,39.0,-100.00,WSW,240,16.0,25.0,31,0.00,,,-99.99,,2013-05-14 17:03:00,
2013-05-14 11:13:00,72.0,40.0,-100.00,West,265,17.0,26.0,30,0.00,,,-99.99,,2013-05-14 17:13:00,
2013-05-14 11:24:00,71.0,39.0,-100.00,West,265,14.0,22.0,30,0.00,,,-99.99,,2013-05-14 17:24:00,
2013-05-14 11:32:00,73.0,40.0,-100.00,West,270,17.0,22.0,30,0.00,,,-99.99,,2013-05-14 17:32:00,
2013-05-14 11:43:00,72.0,40.0,-100.00,SW,230,16.0,24.0,30,0.00,,,-99.99,,2013-05-14 17:43:00,
2013-05-14 11:52:00,72.0,39.0,-100.00,WSW,250,14.0,25.0,29,0.00,,,-99.99,,2013-05-14 17:52:00,
2013-05-14 12:02:00,74.0,41.0,-100.00,West,270,11.0,23.0,30,0.00,,,-99.99,,2013-05-14 18:02:00,
2013-05-14 12:12:00,72.0,40.0,-100.00,SW,235,18.0,24.0,30,0.00,,,-99.99,,2013-05-14 18:12:00,
2013-05-14 12:22:00,74.0,41.0,-100.00,SW,225,13.0,26.0,30,0.00,,,-99.99,,2013-05-14 18:22:00,
2013-05-14 12:32:00,71.0,39.0,-100.00,SW,235,16.0,24.0,30,0.00,,,-99.99,,2013-05-14 18:32:00,
2013-05-14 12:42:00,72.0,40.0,-100.00,West,265,17.0,24.0,31,0.00,,,-99.99,,2013-05-14 18:42:00,
2013-05-14 12:52:00,72.0,40.0,-100.00,West,270,7.0,21.0,31,0.00,,,-99.99,,2013-05-14 18:52:00,
2013-05-14 13:01:00,72.0,40.0,-100.00,West,265,13.0,21.0,31,0.00,,,-99.99,,2013-05-14 19:01:00,
2013-05-14 13:11:00,72.0,40.0,-100.00,WSW,245,17.0,22.0,31,0.00,,,-99.99,,2013-05-14 19:11:00,
2013-05-14 13:22:00,73.0,41.0,-100.00,West,260,18.0,22.0,31,0.00,,,-99.99,,2013-05-14 19:22:00,
2013-05-14 13:32:00,73.0,40.0,-100.00,WNW,290,9.0,17.0,30,0.00,,,-99.99,,2013-05-14 19:32:00,
2013-05-14 13:42:00,73.0,40.0,-100.00,WNW,290,9.0,15.0,30,0.00,,,-99.99,,2013-05-14 19:42:00,
2013-05-14 13:52:00,74.0,40.0,-100.00,WNW,285,11.0,16.0,29,0.00,,,-99.99,,2013-05-14 19:52:00,
2013-05-14 14:02:00,72.0,39.0,-100.00,West,265,12.0,16.0,29,0.00,,,-99.99,,2013-05-14 20:02:00,
2013-05-14 14:11:00,74.0,40.0,-100.00,West,270,8.0,22.0,29,0.00,,,-99.99,,2013-05-14 20:11:00,
2013-05-14 14:23:00,72.0,38.0,-100.00,WNW,290,6.0,17.0,29,0.00,,,-99.99,,2013-05-14 20:23:00,
2013-05-14 14:32:00,71.0,38.0,-100.00,WNW,290,9.0,17.0,29,0.00,,,-99.99,,2013-05-14 20:32:00,
2013-05-14 14:44:00,72.0,39.0,-100.00,WNW,290,9.0,17.0,29,0.00,,,-99.99,,2013-05-14 20:44:00,
2013-05-14 14:52:00,71.0,38.0,-100.00,WSW,240,5.0,19.0,29,0.00,,,-99.99,,2013-05-14 20:52:00,
2013-05-14 15:03:00,70.0,37.0,-100.00,SW,235,7.0,17.0,29,0.00,,,-99.99,,2013-05-14 21:03:00,
2013-05-14 15:12:00,73.0,39.0,-100.00,West,270,8.0,11.0,29,0.00,,,-99.99,,2013-05-14 21:12:00,
2013-05-14 15:23:00,71.0,38.0,-100.00,SW,230,2.0,11.0,29,0.00,,,-99.99,,2013-05-14 21:23:00,
2013-05-14 15:33:00,71.0,38.0,-100.00,SW,235,13.0,19.0,29,0.00,,,-99.99,,2013-05-14 21:33:00,
2013-05-14 15:42:00,73.0,39.0,-100.00,SW,230,12.0,20.0,29,0.00,,,-99.99,,2013-05-14 21:42:00,
2013-05-14 15:52:00,72.0,38.0,-100.00,West,265,11.0,16.0,29,0.00,,,-99.99,,2013-05-14 21:52:00,
2013-05-14 16:03:00,73.0,38.0,-100.00,SW,230,10.0,17.0,28,0.00,,,-99.99,,2013-05-14 22:03:00,
2013-05-14 16:13:00,72.0,38.0,-100.00,WSW,250,16.0,22.0,28,0.00,,,-99.99,,2013-05-14 22:13:00,
2013-05-14 16:24:00,74.0,39.0,-100.00,West,260,11.0,22.0,28,0.00,,,-99.99,,2013-05-14 22:24:00,
2013-05-14 16:34:00,74.0,38.0,-100.00,SW,225,12.0,19.0,27,0.00,,,-99.99,,2013-05-14 22:34:00,
2013-05-14 16:45:00,72.0,37.0,-100.00,West,265,10.0,18.0,27,0.00,,,-99.99,,2013-05-14 22:45:00,
2013-05-14 16:54:00,72.0,37.0,-100.00,WSW,245,16.0,20.0,27,0.00,,,-99.99,,2013-05-14 22:54:00,
2013-05-14 17:03:00,72.0,37.0,-100.00,WSW,245,11.0,18.0,27,0.00,,,-99.99,,2013-05-14 23:03:00,
2013-05-14 17:12:00,72.0,36.0,-100.00,WSW,245,15.0,19.0,27,0.00,,,-99.99,,2013-05-14 23:12:00,
2013-05-14 17:21:00,73.0,38.0,-100.00,West,270,11.0,16.0,28,0.00,,,-99.99,,2013-05-14 23:21:00,
2013-05-14 17:32:00,73.0,38.0,-100.00,WSW,250,10.0,19.0,27,0.00,,,-99.99,,2013-05-14 23:32:00,
2013-05-14 17:44:00,74.0,38.0,-100.00,West,275,11.0,15.0,27,0.00,,,-99.99,,2013-05-14 23:44:00,
2013-05-14 17:52:00,73.0,37.0,-100.00,West,265,7.0,13.0,27,0.00,,,-99.99,,2013-05-14 23:52:00,
2013-05-14 18:02:00,73.0,37.0,-100.00,WSW,240,10.0,12.0,27,0.00,,,-99.99,,2013-05-15 00:02:00,
2013-05-14 18:11:00,72.0,36.0,-100.00,WSW,245,8.0,13.0,27,0.00,,,-99.99,,2013-05-15 00:11:00,
2013-05-14 18:21:00,71.0,36.0,-100.00,West,275,7.0,12.0,27,0.00,,,-99.99,,2013-05-15 00:21:00,
2013-05-14 18:32:00,72.0,37.0,-100.00,West,280,7.0,11.0,27,0.00,,,-99.99,,2013-05-15 00:32:00,
2013-05-14 18:41:00,72.0,37.0,-100.00,WNW,285,9.0,13.0,27,0.00,,,-99.99,,2013-05-15 00:41:00,
2013-05-14 18:51:00,72.0,36.0,-100.00,WNW,285,4.0,11.0,27,0.00,,,-99.99,,2013-05-15 00:51:00,
2013-05-14 19:01:00,72.0,36.0,-100.00,NW,310,6.0,9.0,27,0.00,,,-99.99,,2013-05-15 01:01:00,
2013-05-14 19:11:00,71.0,36.0,-100.00,NW,310,4.0,9.0,27,0.00,,,-99.99,,2013-05-15 01:11:00,
2013-05-14 19:21:00,70.0,36.0,-100.00,WNW,295,4.0,9.0,28,0.00,,,-99.99,,2013-05-15 01:21:00,
2013-05-14 19:31:00,68.0,35.0,-100.00,West,280,3.0,6.0,29,0.00,,,-99.99,,2013-05-15 01:31:00,
2013-05-14 19:42:00,67.0,35.0,-100.00,WNW,285,3.0,4.0,30,0.00,,,-99.99,,2013-05-15 01:42:00,
2013-05-14 19:52:00,66.0,34.0,-100.00,West,270,1.0,3.0,30,0.00,,,-99.99,,2013-05-15 01:52:00,
2013-05-14 20:02:00,64.0,34.0,-100.00,West,270,4.0,6.0,32,0.00,,,-99.99,,2013-05-15 02:02:00,
2013-05-14 20:11:00,63.0,34.0,-100.00,South,180,1.0,7.0,33,0.00,,,-99.99,,2013-05-15 02:11:00,
2013-05-14 20:21:00,62.0,34.0,-100.00,SW,235,2.0,5.0,34,0.00,,,-99.99,,2013-05-15 02:21:00,
2013-05-14 20:31:00,60.0,33.0,-100.00,WSW,240,8.0,10.0,35,0.00,,,-99.99,,2013-05-15 02:31:00,
2013-05-14 20:42:00,59.0,33.0,-100.00,SW,235,11.0,14.0,37,0.00,,,-99.99,,2013-05-15 02:42:00,
2013-05-14 20:52:00,58.0,33.0,-100.00,SW,230,7.0,15.0,38,0.00,,,-99.99,,2013-05-15 02:52:00,
2013-05-14 21:01:00,58.0,33.0,-100.00,SW,230,6.0,13.0,38,0.00,,,-99.99,,2013-05-15 03:01:00,
2013-05-14 21:12:00,59.0,33.0,-100.00,SW,235,10.0,12.0,38,0.00,,,-99.99,,2013-05-15 03:12:00,
2013-05-14 21:22:00,57.0,33.0,-100.00,SW,235,10.0,14.0,39,0.00,,,-99.99,,2013-05-15 03:22:00,
2013-05-14 21:33:00,56.0,33.0,-100.00,SW,220,11.0,17.0,40,0.00,,,-99.99,,2013-05-15 03:33:00,
2013-05-14 21:44:00,57.0,33.0,-100.00,SSW,210,14.0,17.0,40,0.00,,,-99.99,,2013-05-15 03:44:00,
2013-05-14 21:54:00,58.0,34.0,-100.00,SW,220,13.0,19.0,40,0.00,,,-99.99,,2013-05-15 03:54:00,
2013-05-14 22:03:00,57.0,33.0,-100.00,SW,220,14.0,16.0,40,0.00,,,-99.99,,2013-05-15 04:03:00,
2013-05-14 22:12:00,57.0,33.0,-100.00,SW,220,12.0,15.0,41,0.00,,,-99.99,,2013-05-15 04:12:00,
2013-05-14 22:24:00,55.0,33.0,-100.00,SW,220,15.0,19.0,42,0.00,,,-99.99,,2013-05-15 04:24:00,
2013-05-14 22:33:00,55.0,33.0,-100.00,SW,220,13.0,17.0,42,0.00,,,-99.99,,2013-05-15 04:33:00,
2013-05-14 22:42:00,55.0,33.0,-100.00,SW,220,15.0,18.0,43,0.00,,,-99.99,,2013-05-15 04:42:00,
2013-05-14 22:52:00,54.0,33.0,-100.00,SW,220,16.0,19.0,43,0.00,,,-99.99,,2013-05-15 04:52:00,
2013-05-14 23:02:00,54.0,33.0,-100.00,SW,215,15.0,19.0,43,0.00,,,-99.99,,2013-05-15 05:02:00,
2013-05-14 23:12:00,54.0,33.0,-100.00,SW,220,15.0,19.0,44,0.00,,,-99.99,,2013-05-15 05:12:00,
2013-05-14 23:22:00,53.0,33.0,-100.00,SW,225,14.0,19.0,44,0.00,,,-99.99,,2013-05-15 05:22:00,
2013-05-14 23:32:00,53.0,33.0,-100.00,SW,220,16.0,18.0,45,0.00,,,-99.99,,2013-05-15 05:32:00,
2013-05-14 23:42:00,55.0,34.0,-100.00,SW,220,16.0,22.0,44,0.00,,,-99.99,,2013-05-15 05:42:00,
2013-05-14 23:52:00,54.0,33.0,-100.00,SW,215,14.0,20.0,44,0.00,,,-99.99,,2013-05-15 05:52:00,